Tracking 21992 objects as of 29-Nov-2020
HD Live streaming from Space Station
objects crossing your sky now

JILIN-01-08

Track JILIN-01-08 now!
10-day predictions


NORAD ID: 43160
Int'l Code: 2018-008F
Perigee: 537.3 km
Apogee: 548.6 km
Inclination: 97.4 °
Period: 95.4 minutes
Semi major axis: 6913 km
RCS: Unknown
Launch date: January 19, 2018
Source: People's Republic of China (PRC)
Launch site: Jiuquan Satellite Launch Center, China (JSC)
aabbcc
Your satellite tracking list
Your tracking list is empty




NASA's NSSDC Master Catalog

Two Line Element Set (TLE):
1 43160U 18008F   20334.58546444 +.00000987 +00000-0 +64318-4 0  9993
2 43160 097.4250 036.8475 0008212 319.4087 176.7055 15.10124788157710
Source of the keplerian elements: AFSPC